Location: Lafig�re
(44.4503°N, 4.0357°E)
Time: 14:35:03
(UTC+00:00)

S-56A Canister/Altair - Pass Details

Date: 30 January 2021
Orbit: 631 x 2501 km, 38.9° (Epoch: 01 March)

Event Time Altitude Azimuth Distance (km) Brightness Sun altitude
Rises 23:12:49 0° 223° (SW) 4,051 - -61.4°
Reaches altitude 10° 23:16:30 10° 211° (SSW) 2,780 - -61.6°
Maximum altitude 23:21:28 24° 160° (SSE) 1,625 - -61.9°
Drops below altitude 10° 23:25:26 10° 106° (ESE) 2,175 - -62.1°
Sets 23:27:56 0° 91° (E) 2,989 - -62.2°
